Location: Unspecified
(50.7693°N, 0.0000°E)
Time: 07:21:54
(UTC+00:00)

Transit 2A - Pass Details

Date: 15 August 2020
Orbit: 591 x 967 km, 66.7° (Epoch: 20 September)

Event Time Altitude Azimuth Distance (km) Brightness Sun altitude
Rises 23:07:38 0° 298° (WNW) 3,611 10.1 -24.4°
Reaches altitude 10° 23:11:02 10° 316° (NW) 2,698 9.6 -24.5°
Maximum altitude 23:15:23 19° 360° (N) 2,147 9.1 -24.7°
Drops below altitude 10° 23:19:45 10° 43° (NE) 2,709 9.2 -24.8°
Sets 23:23:11 0° 61° (ENE) 3,631 9.7 -24.9°
